User: anonymous   Login
Location: Bishop�s Knoyle
(51.0728°N, 2.1714°W)
Time: 15:53:45
(UTC+00:00)
Language:

EO-88 - Orbit

View from above orbital plane
View from above orbital plane
View from above satellite
View from above satellite

Ground track
Ground track

The orbit data is extracted from the following two-line orbital elements,

1 42017U 17008BX  21331.61126651  .00004905  00000-0  17415-3 0  9997
2 42017  97.2982  36.2428 0004307 239.9975 120.0838 15.29492350266181
Epoch (UTC): 27 November 2021 14:40:13
Eccentricity: 0.0004307
inclination: 97.2982°
perigee height: 474 km
apogee height: 480 km
right ascension of ascending node: 36.2428°
argument of perigee: 239.9975°
revolutions per day: 15.29492350
mean anomaly at epoch: 120.0838°
orbit number at epoch: 26618

The dashed part of the orbit path shows where the satellite is in the earth's shadow,  

DLR